Weather Roundup
Issued by NWS Chicago, IL

Home | Current Version | Previous Version | Graphics & Text | Print | Product List | Glossary On
Versions: 1 2 3 4 5 6 7 8 9 10 11 12 13 14 15 16 17 18 19 20 21 22 23 24 25 26 27 28 29 30 31 32 33 34 35 36 37 38 39 40 41 42 43 44 45 46 47 48 49 50
194
NZUS59 KLOT 250007
HRRLOT

CHICAGO AREA WEATHER ROUNDUP
NATIONAL WEATHER SERVICE CHICAGO/ROMEOVILLE IL
700 PM CDT FRI MAR 24 2017

NOTE: "FAIR" INDICATES FEW OR NO CLOUDS BELOW 12,000 FEET WITH NO
SIGNIFICANT WEATHER AND/OR OBSTRUCTIONS TO VISIBILITY.

* THESE STATIONS ARE NOT UNDER NWS QUALITY CONTROL. THEY ALSO MAY NOT
  REPORT WEATHER SUCH AS PRECIPITATION OR FOG.

ILZ005-006-012>014-019>023-250100-
NORTHEAST ILLINOIS

CITY           SKY/WX    TMP DP  RH WIND       PRES   REMARKS
OHARE          CLOUDY    46  36  68 NE21G29   30.00R
6HR MIN TEMP:  46; 6HR MAX TEMP:  82;

MIDWAY         LGT RAIN  48  39  71 N22G31    29.99R
6HR MIN TEMP:  48; 6HR MAX TEMP:  82; 6HR PCP: TRACE;

AURORA         CLOUDY    68  44  42 CALM      29.93S
6HR MIN TEMP:  68; 6HR MAX TEMP:  82;

LANSING*       CLOUDY    60  46  57 N14G22    29.98R
JOLIET*        LGT RAIN  73  56  56 SW6       29.94R
WAUKEGAN       CLOUDY    40  36  86 N12       30.01R FOG
6HR MIN TEMP:  40; 6HR MAX TEMP:  80;

DUPAGE AIRPORT CLOUDY    54  44  69 NE18      29.95R
6HR MIN TEMP:  54; 6HR MAX TEMP:  81;

WHEELING       CLOUDY    44  38  79 N12G24    30.02R
6HR MIN TEMP:  44; 6HR MAX TEMP:  80;

KANKAKEE*      PTCLDY    70  54  57 S13G20    29.97R
MORRIS*        TSTM      64  59  85 W18       29.95R
LEWIS AIRPORT* CLOUDY    71  51  50 S6        29.93S
NORTHERLY ISL    N/A     41  36  82 N15         N/A
$$

WIZ051-052-058>065-066-070>072-250100-
SOUTHEAST WISCONSIN

CITY           SKY/WX    TMP DP  RH WIND       PRES   REMARKS
MILWAUKEE      CLOUDY    38  34  85 NE17      30.04R
6HR MIN TEMP:  38; 6HR MAX TEMP:  55;

KENOSHA*       CLOUDY    39  35  86 N14G28    30.03R FOG
RACINE*        CLOUDY    38  34  85 N16       30.06R FOG
WAUKESHA       MOCLDY    39  34  81 NE12G18   30.03R
WEST BEND      DRIZZLE   37  36  93 NE15      30.03F
$$

INZ001>003-010>013-019-020-250100-
NORTHWEST INDIANA

CITY           SKY/WX    TMP DP  RH WIND       PRES   REMARKS
GARY*          CLOUDY    45  37  76 NW16G31   30.00R
MICHIGAN CITY* NOT AVBL
RENSSELAER*    NOT AVBL
VALPARAISO     PTCLDY    71  55  56 SW16G23   29.97R
$$

LMZ740>746-250100-
SOUTHERN LAKE MICHIGAN

STATION/POSITION TIME  SKY/WX   TEMP WIND        PRES    VSBY
                                AIR  DIR/SP/G
                 (UTC)          (F)  (DEG/KT/KT) (MB)    (MI)
HARRISON CRIB    2340                350/ 21/ 23   N/A
BURNHAM HARBOR   0000                340/ 18/ 26   N/A
CALUMET HARBOR   2348                340/ 19/ 26 1015.4R
BURNS HARBOR     2340            42  340/ 16/ 23 1015.2R
MICHIGAN CITY    2340            72  200/ 19/ 21   N/A
$$

ABBREVIATIONS USED IN REMARKS
   TC - TEMPERATURE IN CELSIUS
  WCI - WIND CHILL INDEX
   HX - HEAT INDEX
  VSB - VISIBILITY
$$




USA.gov is the U.S. government's official web portal to all federal, state and local government web resources and services.